(236050) = 1997 EF29 = 2005 JL5

Discovered at Catalina on 2005-05-06 by CSS.

Orbit

Orbit type: Hungaria

Note: WebGL enabled browser required.

epoch2024-03-31.0
epoch JD2460400.5
perihelion date2023-06-11.75480
perihelion JD2460107.25480
argument of perihelion (°)73.43010
ascending node (°)167.39056
inclination (°)23.08974
eccentricity0.0329815
perihelion distance (AU)1.8145072
Tisserand w.r.t. Jupiter3.9
ΔV w.r.t. Earth (km/sec)11.3
semimajor axis (AU)1.8763935
mean anomaly (°)112.44726
mean daily motion (°/day)0.38345810
aphelion distance (AU)1.938
period (years)2.57
P-vector [x]-0.47078318
P-vector [y]-0.88182410
P-vector [z]0.02737601
Q-vector [x]0.87808521
Q-vector [y]-0.47134682
Q-vector [z]-0.08245324
absolute magnitude17.47
phase slope0.15
uncertainty0
referenceMPEC 2024-E179
observations used543
oppositions13
arc length (days)9608
first opposition used1997
last opposition used2023
residual rms (arc-secs)0.71
perturbers coarse indicatorM-v
perturbers precise indicator003Ek
first observation date used1997-03-11.0
last observation date used2023-07-01.0
computer nameMPCLINUX
JD of orbit computation2456494.355605
perihelion JD uncertainty (days)3.2644E-04
argument of perihelion uncertainty (°)1.3131E-04
ascending node uncertainty (°)1.8037E-05
inclination uncertainty (°)7.1446E-06
eccentricity uncertainty 7.3705E-08
perihelion distance uncertainty (AU)1.3257E-07
Minimum Orbit Intersection Distances (in AU)
for orbit epoch: 2460400.5, reference: E2024-G02
Mercury1.4003
Venus1.12089
Earth0.8569
Mars0.19275
Jupiter3.05865
Saturn7.28115
Uranus16.5799
Neptune27.9474

Observations

552 total observations over interval: 1997 03 11.27472 – 2023 07 01.268783
These data are available for download (format description).

Date (UT) J2000 RA J2000 Dec Magn Location Ref
1997 03 11.27472 10 04 41.41 +06 04 00.6 19.1 V 704 – Lincoln Laboratory ETS, New Mexico MPC 29272
1997 03 11.35062 10 04 37.91 +06 05 57.0   704 – Lincoln Laboratory ETS, New Mexico MPC 29272
1997 03 13.18108 10 03 21.70 +06 51 57.2 19.2 V 704 – Lincoln Laboratory ETS, New Mexico MPC 29272
1997 03 13.22275 10 03 19.88 +06 52 58.7   704 – Lincoln Laboratory ETS, New Mexico MPC 29272
1997 03 13.30583 10 03 16.25 +06 55 02.5   704 – Lincoln Laboratory ETS, New Mexico MPC 29272
1997 03 13.33361 10 03 15.05 +06 55 44.2   704 – Lincoln Laboratory ETS, New Mexico MPC 29272
2003 09 19.31848 00 38 26.27 -08 16 33.0 18.8 R 699 – Lowell Observatory-LONEOS MPS 134934
2003 09 19.33173 00 38 25.59 -08 16 53.9   699 – Lowell Observatory-LONEOS MPS 134934
2003 09 19.34498 00 38 24.93 -08 17 13.0   699 – Lowell Observatory-LONEOS MPS 134934
2003 09 19.35827 00 38 24.27 -08 17 33.4   699 – Lowell Observatory-LONEOS MPS 134934
2005 03 13.42947 15 29 27.69 +04 13 09.0 20.3   703 – Catalina Sky Survey MPS 134934
2005 03 13.43590 15 29 28.00 +04 13 17.1 19.4   703 – Catalina Sky Survey MPS 134934
2005 03 13.44230 15 29 28.18 +04 13 26.5 19.7   703 – Catalina Sky Survey MPS 134934
2005 03 13.44875 15 29 28.45 +04 13 33.3 21.0   703 – Catalina Sky Survey MPS 134934
2005 05 04.22112 15 22 04.01 +23 17 54.6 19.3 R 695 – Kitt Peak MPS 134062
2005 05 04.23402 15 22 03.28 +23 18 05.9   695 – Kitt Peak MPS 134062
2005 05 06.27577 15 20 10.64 +23 46 10.2 19.2 V 703 – Catalina Sky Survey MPS 134062
2005 05 06.28412 15 20 10.06 +23 46 17.6 19.0 V 703 – Catalina Sky Survey MPS 134062
2005 05 06.29249 15 20 09.56 +23 46 23.6 18.9 V 703 – Catalina Sky Survey MPS 134062
2005 05 06.30091 15 20 08.95 +23 46 32.0 18.6 V 703 – Catalina Sky Survey MPS 134062
2005 05 06.44571 15 20 00.56 +23 48 23.1 19.5 V 703 – Catalina Sky Survey MPS 134062
2005 05 06.44779 15 20 00.45 +23 48 25.1 19.3 V 703 – Catalina Sky Survey MPS 134062
2005 05 06.44986 15 20 00.31 +23 48 26.2 19.2 V 703 – Catalina Sky Survey MPS 134062
2005 05 06.45193 15 20 00.20 +23 48 27.6 19.8 V 703 – Catalina Sky Survey MPS 134062
2005 05 06.92206 15 19 34.55 +23 54 29.3 19.0 V A50 – Andrushivka Astronomical Observatory MPS 134062
2005 05 06.92421 15 19 34.42 +23 54 31.0 19.1 V A50 – Andrushivka Astronomical Observatory MPS 134062
2005 05 06.92638 15 19 34.27 +23 54 31.8 19.5 V A50 – Andrushivka Astronomical Observatory MPS 134062
2005 05 06.92853 15 19 34.17 +23 54 33.2 19.3 V A50 – Andrushivka Astronomical Observatory MPS 134062
2005 05 06.93068 15 19 34.01 +23 54 35.6 19.1 V A50 – Andrushivka Astronomical Observatory MPS 134062
2005 05 07.03086 15 19 28.29 +23 55 52.5 19.1 R 176 – Observatorio Astronomico de Consell MPS 134062
2005 05 07.03550 15 19 28.02 +23 55 56.3 19.5 R 176 – Observatorio Astronomico de Consell MPS 134062
2005 05 07.03781 15 19 27.89 +23 55 58.1 19.4 R 176 – Observatorio Astronomico de Consell MPS 134062
2005 05 07.04013 15 19 27.75 +23 56 00.0 19.5 R 176 – Observatorio Astronomico de Consell MPS 134062
2005 05 07.05637 15 19 26.82 +23 56 12.4 19.1 R 493 – Calar Alto MPS 134062
2005 05 07.05777 15 19 26.74 +23 56 13.4 19.1 R 493 – Calar Alto MPS 134062
2005 05 07.05910 15 19 26.66 +23 56 14.4 19.3 R 493 – Calar Alto MPS 134062
2005 05 07.32677 15 19 11.74 +23 59 36.5 19.8 V 703 – Catalina Sky Survey MPS 134062
2005 05 07.32961 15 19 11.60 +23 59 38.1 19.3 R G96 – Mt. Lemmon Survey MPS 134062
2005 05 07.33332 15 19 11.35 +23 59 41.2 19.1 V 703 – Catalina Sky Survey MPS 134062
2005 05 07.33683 15 19 11.17 +23 59 43.6 18.9 R G96 – Mt. Lemmon Survey MPS 134062
2005 05 07.33988 15 19 10.95 +23 59 44.2 19.3 V 703 – Catalina Sky Survey MPS 134062
2005 05 07.34406 15 19 10.73 +23 59 48.7 19.1 R G96 – Mt. Lemmon Survey MPS 134062
2005 05 07.34642 15 19 10.63 +23 59 51.7 19.4 V 703 – Catalina Sky Survey MPS 134062
2005 05 07.35130 15 19 10.31 +23 59 54.3 18.9 R G96 – Mt. Lemmon Survey MPS 134062
2005 05 07.38641 15 19 08.20 +24 00 20.7 19.5 R 854 – Sabino Canyon Observatory, Tucson MPS 134062
2005 05 07.39029 15 19 07.84 +24 00 24.5 19.5 R 854 – Sabino Canyon Observatory, Tucson MPS 134062
2005 05 08.01675 15 18 33.06 +24 07 58.2   J95 – Great Shefford MPS 134062
2005 05 08.02049 15 18 32.85 +24 08 01.3   J95 – Great Shefford MPS 134062
2005 05 08.02452 15 18 32.57 +24 08 03.7 19.7 R J95 – Great Shefford MPS 134062
2005 05 16.32315 15 10 47.24 +25 24 29.6 19.4 V 703 – Catalina Sky Survey MPS 134934
2005 05 16.32459 15 10 47.20 +25 24 29.3 18.9 V 703 – Catalina Sky Survey MPS 134934
2005 05 16.33091 15 10 46.92 +25 24 31.8 19.3 V 703 – Catalina Sky Survey MPS 134934
2005 05 16.33233 15 10 46.81 +25 24 31.2 19.4 V 703 – Catalina Sky Survey MPS 134934
2005 05 16.33874 15 10 46.48 +25 24 36.3 19.9 V 703 – Catalina Sky Survey MPS 134934
2005 05 16.34019 15 10 46.38 +25 24 35.8 19.5 V 703 – Catalina Sky Survey MPS 134934
2005 05 16.34653 15 10 45.94 +25 24 39.4 20.5 V 703 – Catalina Sky Survey MPS 134934
2005 05 16.34797 15 10 45.80 +25 24 39.3 20.2 V 703 – Catalina Sky Survey MPS 134934
2005 06 01.28999 14 58 29.38 +25 46 03.5 19.3 V 703 – Catalina Sky Survey MPS 135614
2005 06 01.29815 14 58 29.06 +25 46 01.9 19.5 V 703 – Catalina Sky Survey MPS 135614
2005 06 01.30634 14 58 28.81 +25 46 00.8 19.2 V 703 – Catalina Sky Survey MPS 135614
2005 06 01.31447 14 58 28.45 +25 45 58.9 19.3 V 703 – Catalina Sky Survey MPS 135614
2008 07 30.37471 22 31 49.51 +10 27 08.7 20.3 V 703 – Catalina Sky Survey MPS 252935
2008 07 30.38197 22 31 49.22 +10 27 01.4 19.8 V 703 – Catalina Sky Survey MPS 252935
2008 07 30.38921 22 31 49.08 +10 26 57.9 20.1 V 703 – Catalina Sky Survey MPS 252935
2008 07 30.39648 22 31 48.79 +10 26 51.6 20.6 V 703 – Catalina Sky Survey MPS 252935
2008 08 24.87727 22 13 44.19 +02 12 04.9 18.5 V J75 – OAM Observatory, La Sagra MPS 254494
2008 08 24.89529 22 13 43.20 +02 11 37.5 19.2 V J75 – OAM Observatory, La Sagra MPS 254494
2008 08 24.91316 22 13 42.22 +02 11 11.3 18.7 V J75 – OAM Observatory, La Sagra MPS 254494
2008 08 26.26592 22 12 30.91 +01 37 25.1 19.6   704 – Lincoln Laboratory ETS, New Mexico MPS 254494
2008 08 26.27869 22 12 30.23 +01 37 05.7 19.2   704 – Lincoln Laboratory ETS, New Mexico MPS 254494
2008 08 26.29179 22 12 29.54 +01 36 45.4 19.2   704 – Lincoln Laboratory ETS, New Mexico MPS 254494
2008 08 26.31740 22 12 28.09 +01 36 06.7 19.5   704 – Lincoln Laboratory ETS, New Mexico MPS 254494
2008 08 30.19005 22 09 06.77 -00 02 40.0 19.4   704 – Lincoln Laboratory ETS, New Mexico MPS 255226
2008 08 30.20429 22 09 06.04 -00 03 01.6 19.8   704 – Lincoln Laboratory ETS, New Mexico MPS 255226
2008 08 30.22146 22 09 05.13 -00 03 28.1 19.8   704 – Lincoln Laboratory ETS, New Mexico MPS 255226
2008 08 30.23497 22 09 04.41 -00 03 49.1 19.5   704 – Lincoln Laboratory ETS, New Mexico MPS 255226
2008 08 30.25440 22 09 03.32 -00 04 20.0 19.4   704 – Lincoln Laboratory ETS, New Mexico MPS 255226
2008 09 24.16638 21 54 04.60 -10 10 50.4 19.4   704 – Lincoln Laboratory ETS, New Mexico MPS 256707
2008 09 24.17862 21 54 04.38 -10 11 06.2 20.0   704 – Lincoln Laboratory ETS, New Mexico MPS 256707
2008 09 24.19082 21 54 04.20 -10 11 21.4 19.6   704 – Lincoln Laboratory ETS, New Mexico MPS 256707
2008 09 24.20301 21 54 03.97 -10 11 35.5 20.0   704 – Lincoln Laboratory ETS, New Mexico MPS 256707
2008 09 24.21521 21 54 03.68 -10 11 50.5 20.2   704 – Lincoln Laboratory ETS, New Mexico MPS 256707
2010 02 13.48256 13 02 47.54 -03 39 03.8 19.7 V G96 – Mt. Lemmon Survey MPS 313194
2010 02 13.48968 13 02 47.68 -03 38 56.6 19.7 V G96 – Mt. Lemmon Survey MPS 313194
2010 02 13.49689 13 02 47.86 -03 38 50.1 19.5 V G96 – Mt. Lemmon Survey MPS 313194
2010 02 13.50411 13 02 48.04 -03 38 43.1 19.8 V G96 – Mt. Lemmon Survey MPS 313194
2010 03 13.92659 13 02 06.03 +06 57 46.0 19.0 V J75 – OAM Observatory, La Sagra MPS 317914
2010 03 13.92816 13 02 05.93 +06 57 48.4 19.1 V J75 – OAM Observatory, La Sagra MPS 317914
2010 03 13.93947 13 02 05.52 +06 58 06.6 18.6 V J75 – OAM Observatory, La Sagra MPS 317914
2010 03 13.94104 13 02 05.52 +06 58 09.6 18.6 V J75 – OAM Observatory, La Sagra MPS 317914
2010 03 13.95235 13 02 05.14 +06 58 28.5 19.1 V J75 – OAM Observatory, La Sagra MPS 317914
